1298764831012,95.4898
1298764891012,95.4795
1298764951012,95.5291
1298765011012,95.5924
1298765071012,95.4872
1298765131012,95.3955
1298765191012,95.2936
1298765251012,95.3464
1298765311012,95.5833
1298765371012,95.4655
1298765431012,95.3544
1298765491012,95.3667
1298765551012,95.5179
1298765611012,95.4545
1298765671012,95.4689
1298765731012,95.4703
1298765791012,95.4005
1298765851012,95.1916
1298765911012,95.1569
1298765971012,95.4017
1298766031012,95.3668
1298766091012,95.0796
1298766151012,95.2757
1298766211012,95.4951
1298766271012,95.4949
1298766331012,95.4440
1298766391012,95.3556
1298766451012,95.4332
1298766511012,95.4824
1298766571012,95.4401
1298766631012,95.3904
1298766691012,95.5369
1298766751012,95.5863
1298766811012,95.5463
1298766871012,95.5214
1298766931012,95.5565
1298766991012,95.4883
1298767051012,95.4457
1298767111012,95.4854
1298767171012,95.4443
1298767231012,95.5248
1298767291012,95.5847
1298767351012,95.4082
1298767411012,95.4495
1298767471012,95.3726
1298767531012,95.7263
1298767591012,95.3250
1298767651012,95.4371
1298767711012,95.2671
1298767771012,95.3302
1298767831012,95.2399
1298767891012,95.4807
1298767951012,95.4192
1298768011012,95.3426
1298768071012,95.1758
1298768131012,95.4251
1298768191012,95.4564
1298768251012,95.3624
1298768311012,95.6071
1298768371012,95.3513
1298768431023,95.4243
1298768491023,95.3578
1298768551023,95.6052
1298768611023,95.0971
1298768671023,95.7706
1298768731023,95.4666
1298768791023,95.4167
1298768851023,95.4208
1298768911023,95.6311
1298768971023,95.3595
1298769031023,95.5587
1298769091023,95.5390
1298769151023,95.4989
1298769211023,95.4330
1298769271023,95.4690
1298769331023,95.5934
1298769391023,95.3935
1298769451023,95.3340
1298769511023,95.4867
1298769571023,95.5664
1298769631023,95.7042
1298769691023,95.4866
1298769751023,95.4981
1298769811023,95.3353
1298769871023,95.6299
1298769931023,95.6115
1298769991023,95.8290
1298770051023,95.6647
1298770111023,95.5938
1298770171023,95.5733
1298770231023,95.4457
1298770291023,95.5607
1298770351023,95.4688
1298770411023,95.5448
1298770471023,95.7684
1298770531023,95.6230
1298770591023,95.7719
1298770651023,95.6996
1298770711023,95.7840
1298770771023,95.7013
1298770831023,95.6482
1298770891023,95.8584
1298770951023,95.7920
1298771011023,95.7965
1298771071023,95.6995
1298771131023,95.7334
1298771191023,95.5590
1298771251023,95.8983
1298771311023,95.5339
1298771371023,95.5315
1298771431023,95.7398
1298771491023,95.5265
1298771551023,95.8054
1298771611023,95.5060
1298771671023,95.5286
1298771731023,95.3838
1298771791023,95.6848
1298771851023,95.6680
1298771911023,95.3647
1298771971023,95.8706
1298772031035,95.6249
1298772091035,95.4118
1298772151035,95.6651
1298772211035,95.6310
1298772271035,95.5392
1298772331035,95.5037
1298772391035,95.5344
1298772451035,95.4966
1298772511035,95.4094
1298772571035,95.3886
1298772631035,95.4506
1298772691035,95.5246
1298772751035,95.4366
1298772811035,95.2980
1298772871035,95.4203
1298772931035,95.3776
1298772991035,95.2098
1298773051035,95.3485
1298773111035,95.4516
1298773171035,95.4205
1298773231035,95.4790
1298773291035,95.3765
1298773351035,95.4052
1298773411035,95.3873
1298773471035,95.3964
1298773531035,95.4399
1298773591035,95.3006
1298773651035,95.1885
1298773711035,95.3501
1298773771035,95.3754
1298773831035,95.2445
1298773891035,95.3456
1298773951035,95.2291
1298774011035,95.1523
1298774071035,95.3521
1298774131035,95.2501
1298774191035,95.2868
1298774251035,95.3444
1298774311035,95.3479
1298774371035,95.3977
1298774431035,95.5105
1298774491035,96.5113
1298774551035,95.6267
1298774611035,95.3881
1298774671035,95.4398
1298774731035,95.6218
1298774791035,95.5106
1298774851035,95.3945
1298774911035,95.3963
1298774971035,95.3604
1298775031035,95.1392
1298775091035,95.4368
1298775151035,95.4925
1298775211035,95.5203
1298775271035,95.3154
1298775331035,95.4192
1298775391035,95.4338
1298775451035,95.3087
1298775511035,95.4162
1298775571035,95.1212
1298775631046,95.3862
1298775691046,95.3529
1298775751046,95.5641
1298775811046,95.4965
1298775871046,95.2025
1298775931046,95.3024
1298775991046,95.1064
1298776051046,95.1873
1298776111046,95.4123
1298776171046,95.3807
1298776231046,95.3790
1298776291046,95.2032
1298776351046,95.5334
1298776411046,95.2478
1298776471046,95.1717
1298776531046,95.3996
1298776591046,95.5079
1298776651046,95.6548
1298776711046,95.4162
1298776771046,95.4653
1298776831046,95.3506
1298776891046,95.2451
1298776951046,95.3871
1298777011046,95.5976
1298777071046,95.4053
1298777131046,95.3996
1298777191046,95.4051
1298777251046,95.3296
1298777311046,95.1560
1298777371046,95.3869
1298777431046,95.2805
1298777491046,95.3758
1298777551046,95.3833
1298777611046,95.5998
1298777671046,95.2032
1298777731046,95.4031
1298777791046,95.1652
1298777851046,95.4711
1298777911046,95.1875
1298777971046,95.1813
1298778031046,95.2782
1298778091046,95.4161
1298778151046,95.3591
1298778211046,95.3296
1298778271046,95.2538
1298778331046,95.1640
1298778391046,95.5530
1298778451046,95.1581
1298778511046,95.2632
1298778571046,95.3473
1298778631046,95.4912
1298778691046,95.4701
1298778751046,95.5841
1298778811046,95.8382
1298778871046,96.1136
1298778931046,95.8409
1298778991046,95.9446
1298779051046,95.8710
1298779111046,95.8620
1298779171046,95.7762
1298779231057,96.1371
1298779291057,95.8870
1298779351057,95.6739
1298779411058,95.5622
1298779471058,95.4847
1298779531058,95.7589
1298779591058,95.3755
1298779651058,95.7161
1298779711058,95.9009
1298779771058,96.1557
1298779831058,95.5964
1298779891058,95.6809
1298779951058,95.8065
1298780011058,95.7133
1298780071058,95.8567
1298780131058,95.7015
1298780191058,95.7063
1298780251058,95.7176
1298780311058,95.6261
1298780371058,95.6207
1298780431058,95.8517
1298780491058,95.6606
1298780551057,95.6868
1298780611057,95.5868
1298780671057,95.8236
1298780731057,95.6475
1298780791058,95.6846
1298780851058,95.7466
1298780911058,95.6469
1298780971058,95.7629
1298781031058,95.7625
1298781091058,95.4717
1298781151058,95.6939
1298781211058,95.8392
1298781271058,95.6977
1298781331058,95.4677
1298781391058,95.6941
1298781451058,95.5070
1298781511058,95.4733
1298781571058,95.4794
1298781631058,95.4503
1298781691058,95.6042
1298781751058,95.7446
1298781811058,95.6361
1298781871057,95.5261
1298781931057,95.6152
1298781991057,95.8056
1298782051057,95.6107
1298782111058,95.8874
1298782171058,95.6086
1298782231058,95.6091
1298782291058,95.8328
1298782351058,95.6922
1298782411058,95.5473
1298782471058,95.4776
1298782531058,95.7212
1298782591058,95.7041
1298782651058,95.6866
1298782711058,95.5495
1298782771058,95.5596
1298782831069,95.7101
1298782891069,95.8487
1298782951069,95.5288
1298783011069,95.8338
1298783071069,95.6946
1298783131069,95.7602
1298783191069,95.8633
1298783251069,95.8760
1298783311069,95.8154
1298783371069,95.8223
1298783431069,95.8319
1298783491069,95.7058
1298783551069,95.8348
1298783611069,95.6489
1298783671069,95.8310
1298783731069,95.8731
1298783791069,95.9568
1298783851069,95.8450
1298783911069,95.8511
1298783971069,95.8531
1298784031069,96.0559
1298784091069,95.9625
1298784151069,95.7693
1298784211069,95.8758
1298784271069,95.7750
1298784331069,95.8336
1298784391069,95.8425
1298784451069,95.9546
1298784511069,95.9933
1298784571069,95.9544
1298784631069,95.7715
1298784691069,96.0579
1298784751069,95.9485
1298784811069,95.9838
1298784871069,95.8931
1298784931069,95.9004
1298784991069,95.8844
1298785051069,95.8922
1298785111069,95.6887
1298785171069,95.8437
1298785231069,95.8922
1298785291069,95.9128
1298785351069,95.8913
1298785411069,95.8041
1298785471069,95.8190
1298785531069,95.7062
1298785591069,95.7688
1298785651069,95.8153
1298785711069,95.8637
1298785771069,95.9684
1298785831069,95.7916
1298785891069,95.8645
1298785951069,95.8984
1298786011069,95.6376
1298786071069,95.7849
1298786131069,95.6966
1298786191069,95.9113
1298786251069,95.9569
1298786311069,95.8406
1298786371069,95.8457
1298786431081,95.7587
1298786491081,95.8944
1298786551081,95.7617
1298786611081,95.9788
1298786671081,95.7515
1298786731081,95.9432
1298786791081,95.9292
1298786851081,96.0798
1298786911081,95.5639
1298786971081,95.9551
1298787031081,95.7726
1298787091081,95.7681
1298787151081,95.8648
1298787211081,95.7611
1298787271081,95.6655
1298787331081,96.0199
1298787391081,95.7405
1298787451081,95.8173
1298787511081,95.8537
1298787571081,95.4614
1298787631081,95.6952
1298787691081,95.5431
1298787751081,95.6412
1298787811081,95.8539
1298787871081,95.7444
1298787931081,95.5004
1298787991081,95.6163
1298788051081,95.5894
1298788111081,95.6769
1298788171081,95.7905
1298788231081,95.4426
1298788291081,95.6771
1298788351081,95.5694
1298788411081,95.5706
1298788471081,95.4726
1298788531081,95.6948
1298788591081,95.4097
1298788651081,95.5545
1298788711081,95.4210
1298788771081,95.4682
1298788831081,95.5384
1298788891081,95.5205
1298788951081,95.5086
1298789011081,95.4810
1298789071081,95.4900
1298789131081,95.6556
1298789191081,95.4793
1298789251081,95.4223
1298789311081,95.6499
1298789371081,95.4859
1298789431081,95.4248
1298789491081,95.5179
1298789551081,95.4733
1298789611081,95.6432
1298789671081,95.6818
1298789731081,95.5671
1298789791081,95.6193
1298789851081,95.6296
1298789911081,95.6061
1298789971081,95.4535
1298790031092,95.5917
1298790091092,95.5816
1298790151092,95.5207
1298790211092,95.6629
1298790271092,95.5592
1298790331092,95.4510
1298790391092,95.4469
1298790451092,95.4852
1298790511092,95.5208
1298790571092,95.9192
1298790631092,95.5697
1298790691092,95.6010
1298790751092,95.5067
1298790811092,95.7580
1298790871092,95.7199
1298790931092,95.8076
1298790991092,95.8353
1298791051092,95.5625
1298791111092,95.8143
1298791171092,95.5680
1298791231092,95.8283
1298791291092,95.7398
1298791351092,95.8080
1298791411092,95.7179
1298791471092,95.4938
1298791531092,95.6808
1298791591092,95.6467
1298791651092,95.6535
1298791711092,95.3865
1298791771092,95.6902
1298791831092,95.2613
1298791891092,95.5966
1298791951092,95.6998
1298792011092,95.7858
1298792071092,95.7008
1298792131092,95.6635
1298792191092,95.8343
1298792251092,95.6630
1298792311092,95.5040
1298792371092,95.9557
1298792431092,95.5628
1298792491092,95.5079
1298792551092,95.8018
1298792611092,95.4682
1298792671092,95.5817
1298792731092,95.8636
1298792791092,95.7222
1298792851092,95.7075
1298792911092,95.7663
1298792971092,95.5461
1298793031092,95.2929
1298793091092,95.5248
1298793151092,95.4697
1298793211092,95.5937
1298793271092,95.3991
1298793331092,95.6427
1298793391092,95.5278
1298793451092,95.6620
1298793511092,95.4394
1298793571092,95.5824
1298793631104,95.6345
1298793691104,95.2121
1298793751104,95.5829
1298793811104,95.4999
1298793871104,95.5636
1298793931104,95.4691
1298793991104,95.5766
1298794051104,95.5442
1298794111104,95.3896
1298794171104,95.3558
1298794231104,95.4173
1298794291104,95.5134
1298794351104,95.3130
1298794411104,95.3759
1298794471104,95.6481
1298794531104,95.4830
1298794591104,95.1331
1298794651104,95.5380
1298794711104,95.4456
1298794771104,95.3016
1298794831104,95.4813
1298794891104,95.5411
1298794951104,95.3925
1298795011104,95.2880
1298795071104,95.4309
1298795131104,95.1672
1298795191104,95.3893
1298795251104,95.1327
1298795311104,95.2428
1298795371104,95.2538
1298795431104,95.3570
1298795491104,95.1787
1298795551104,95.2603
1298795611104,95.2730
1298795671104,95.2735
1298795731104,95.2615
1298795791104,95.0805
1298795851104,95.3631
1298795911104,95.3720
1298795971104,95.1128
1298796031104,95.2659
1298796091104,95.1665
1298796151104,95.5842
1298796211104,95.2807
1298796271104,95.1660
1298796331104,95.1109
1298796391104,95.0694
1298796451104,95.0859
1298796511104,95.3296
1298796571104,95.2505
1298796631104,95.0231
1298796691104,94.9061
1298796751104,95.0680
1298796811104,95.0614
1298796871104,95.2924
1298796931104,95.2315
1298796991104,95.0317
1298797051104,95.2407
1298797111104,95.1425
1298797171104,95.1772
1298797231115,95.4388
1298797291115,95.1686
1298797351115,95.2131
1298797411115,95.0737
1298797471115,95.2056
1298797531115,95.3193
1298797591115,95.3056
1298797651115,95.3386
1298797711115,95.1608
1298797771115,95.3931
1298797831115,95.3463
1298797891115,95.3308
1298797951115,95.3103
1298798011115,95.3267
1298798071115,95.3990
1298798131115,95.1604
1298798191116,95.4313
1298798251116,95.0625
1298798311116,95.4117
1298798371115,95.2778
1298798431115,95.1468
1298798491115,95.1742
1298798551115,95.1940
1298798611115,95.1144
1298798671115,95.2019
1298798731115,95.2182
1298798791115,95.2550
1298798851115,95.2638
1298798911115,95.0888
1298798971115,95.1331
1298799031115,95.2265
1298799091115,95.1229
1298799151115,94.9280
1298799211115,95.2175
1298799271115,95.1309
1298799331115,95.2567
1298799391115,95.4024
1298799451115,95.2839
1298799511115,94.8083
1298799571116,95.0215
1298799631116,94.9807
1298799691115,95.1428
1298799751115,94.8816
1298799811115,94.8673
1298799871115,94.8497
1298799931115,94.9439
1298799991115,94.9875
1298800051115,94.9236
1298800111115,94.9575
1298800171115,94.9417
1298800231115,95.0505
1298800291115,94.7893
1298800351115,94.9134
1298800411115,95.0748
1298800471115,94.8657
1298800531115,94.8939
1298800591115,94.9908
1298800651115,94.9535
1298800711115,94.6947
1298800771115,94.5906
1298800831127,95.0159
1298800891127,94.7718
1298800951127,94.7162
1298801011127,95.0052
1298801071127,94.9342
1298801131127,95.0330
1298801191127,94.8810
1298801251127,95.0703
1298801311127,94.9803
1298801371127,94.8755
1298801431127,95.0604
1298801491127,94.8879
1298801551127,94.9735
1298801611127,94.7486
1298801671127,94.9227
1298801731127,94.9057
1298801791127,95.0254
1298801851127,94.8315
1298801911127,95.0193
1298801971127,95.0284
1298802031127,94.8686
1298802091127,94.7040
1298802151127,94.8994
1298802211127,94.8205
1298802271127,94.8352
1298802331127,94.7566
1298802391127,94.7712
1298802451127,94.7511
1298802511127,94.8766
1298802571127,94.9434
1298802631127,94.9955
1298802691127,94.7919
1298802751127,94.7673
1298802811127,95.0341
1298802871127,94.9191
1298802931127,94.6368
1298802991127,94.7614
1298803051127,94.8680
1298803111127,94.9589
1298803171127,95.0600
1298803231127,94.9333
1298803291127,94.8129
1298803351127,95.2909
1298803411127,95.0534
1298803471127,95.1307
1298803531127,95.0156
1298803591127,94.9478
1298803651127,95.1796
1298803711127,95.1795
1298803771127,95.1632
1298803831127,95.2962
1298803891127,95.2498
1298803951127,94.8852
1298804011127,95.2839
1298804071127,95.0662
1298804131127,95.1399
1298804191127,95.3564
1298804251127,95.3234
1298804311127,95.3376
1298804371127,95.2584
1298804431139,95.0951
1298804491139,95.3399
1298804551139,95.6272
1298804611139,95.2776
1298804671139,95.2745
1298804731139,95.3742
1298804791139,95.4270
1298804851139,95.4854
1298804911139,95.5853
1298804971139,95.4116
1298805031139,95.3705
1298805091139,95.5695
1298805151139,95.4877
1298805211139,95.4434
1298805271139,95.4632
1298805331139,95.5256
1298805391139,95.4144
1298805451139,95.3880
1298805511139,95.6830
1298805571139,95.4094
1298805631139,95.5995
1298805691139,95.6109
1298805751139,95.5051
1298805811139,95.4948
1298805871139,95.4826
1298805931139,95.4367
1298805991139,95.4287
1298806051139,95.5545
1298806111139,95.6871
1298806171139,95.6456
1298806231139,95.5382
1298806291139,95.4678
1298806351139,95.5543
1298806411139,95.3151
1298806471139,95.6062
1298806531139,95.5765
1298806591139,95.4015
1298806651139,95.5396
1298806711139,95.6992
1298806771139,95.6350
1298806831139,95.6283
1298806891139,95.4139
1298806951139,95.5035
1298807011139,95.4228
1298807071139,95.5403
1298807131139,95.7440
1298807191139,95.5680
1298807251139,95.4950
1298807311139,95.3845
1298807371139,95.5114
1298807431139,95.5622
1298807491139,95.5468
1298807551139,95.4316
1298807611139,95.4304
1298807671139,95.3877
1298807731139,95.7812
1298807791139,95.5137
1298807851139,95.4317
1298807911139,95.4734
1298807971139,95.5295
1298808031150,95.4485
1298808091150,95.5889
1298808151150,95.6369
1298808211150,95.5176
1298808271150,95.4207
1298808331150,95.6101
1298808391150,95.6003
1298808451150,95.5319
1298808511150,95.5895
1298808571150,95.5744
1298808631150,95.6363
1298808691150,95.6715
1298808751150,95.5643
1298808811150,95.4918
1298808871150,95.6104
1298808931150,95.6916
1298808991150,95.4068
1298809051150,95.3863
1298809111150,95.5482
1298809171150,95.3783
1298809231150,95.6084
1298809291150,95.3346
1298809351150,95.5744
1298809411150,95.5407
1298809471150,95.4790
1298809531150,95.5877
1298809591150,95.5133
1298809651150,95.6878
1298809711150,95.2894
1298809771150,95.5874
1298809831150,95.4082
1298809891150,95.6414
1298809951150,95.4856
1298810011150,95.7198
1298810071150,95.5036
1298810131150,95.5457
1298810191150,95.4233
1298810251150,95.2915
1298810311150,95.4240
1298810371150,95.5689
1298810431150,95.4532
1298810491150,95.3871
1298810551150,95.5543
1298810611150,95.4138
1298810671150,95.5023
1298810731150,95.3200
1298810791150,95.4125
1298810851150,95.3917
1298810911150,95.2525
1298810971150,95.2707
1298811031150,95.2449
1298811091150,95.4345
1298811151150,95.2502
1298811211150,95.0976
1298811271150,95.3368
1298811331150,95.0330
1298811391150,95.3546
1298811451150,95.3755
1298811511150,95.1301
1298811571150,95.4318
1298811631161,95.1659
1298811691161,95.2547
1298811751161,95.2273
1298811811161,95.0669
1298811871161,95.3738
1298811931161,95.1074
1298811991161,94.9890
1298812051161,95.4053
1298812111161,95.2339
1298812171161,94.9597
1298812231161,95.2450
1298812291161,95.2653
1298812351161,94.7164
1298812411161,95.0339
1298812471161,95.0298
1298812531161,95.1092
1298812591161,95.2387
1298812651161,95.1733
1298812711161,95.1674
1298812771161,95.0453
1298812831161,94.8888
1298812891161,95.3512
1298812951161,95.1441
1298813011161,95.3950
1298814151161,95.1400
1298814211161,92.0949
1298814271161,95.1209
1298814331161,94.8896
1298814391161,95.0743
1298814451161,94.9716
1298814511161,95.1270
1298814571161,95.1649
1298814631161,95.0828
1298814691161,94.9930
1298814751161,95.0988
1298814811161,95.0017
1298814871161,94.9637
1298814931161,94.9930
1298814991161,95.1642
1298815051161,94.7594
1298815111161,94.9616
1298815171161,94.8505
1298815231173,95.0564
1298815291173,95.0955
1298815351173,95.1544
1298815411173,95.2726
1298815471173,94.8903
1298815531173,94.9796
1298815591173,95.0606
1298815651173,95.2176
1298815711173,95.1735
1298815771173,94.9912
1298815831173,95.2699
1298815891173,95.1821
1298815951173,95.2032
1298816011173,95.2455
1298816071173,95.0762
1298816131173,95.2342
1298816191173,95.2723
1298816251173,95.0870
1298816311173,95.0764
1298816371173,95.0641
1298816431173,95.2229
1298816491173,95.2714
1298816551173,95.2328
1298816611173,95.2164
1298816671173,95.2056
1298816731173,95.3341
1298816791173,94.9816
1298816851173,95.3140
1298816911173,95.1504
1298816971173,95.0465
1298817031173,95.0711
1298817091173,94.8394
1298817151173,94.9898
1298817211173,95.2667
1298817271173,95.2522
1298817331173,95.0372
1298817391173,94.9749
1298817451173,94.8715
1298817511173,95.0259
1298817571173,95.3843
1298817631173,95.1648
1298817691173,95.4498
1298817751173,95.1076
1298817811173,95.1289
1298817871173,95.1843
1298817931173,95.3110
1298817991173,95.2911
1298818051173,95.2351
1298818111173,95.1877
1298818171173,95.0615
1298818231173,95.3142
1298818291173,95.2078
1298818351173,95.1593
1298818411173,95.1714
1298818471173,95.2425
1298818531173,95.3223
1298818591173,95.2951
1298818651173,95.2335
1298818711173,95.5199
1298818771173,95.2676
1298818831184,95.1951
1298818891184,95.0586
1298818951184,95.2991
1298819011184,95.1569
1298819071184,95.2719
1298819131184,95.1532
1298819191184,95.2031
1298819251184,95.4440
1298819311184,95.3626
1298819371184,95.1125
1298819431184,95.2155
1298819491184,95.1768
1298819551184,95.2188
1298819611184,95.2378
1298819671184,95.2820
1298819731184,94.9981
1298819791184,95.3714
1298819851184,95.1844
1298819911184,95.2183
1298819971184,95.1483
1298820031184,95.1306
1298820091184,95.2661
1298820151184,95.3141
1298820211184,95.3717
1298820271184,95.3151
1298820331184,95.1212
1298820391184,95.1754
1298820451184,95.1558
1298820511184,95.2078
1298820571184,95.1098
1298820631184,95.0747
1298820691184,95.2554
1298820751184,95.2094
1298820811184,95.4325
1298820871184,95.2014
1298820931184,95.0665
1298820991184,95.1493
1298821051184,95.0431
1298821111184,95.3857
1298821171184,94.9909
1298821231184,95.2947
1298821291184,95.2231
1298821351184,95.3536
1298821411184,95.3771
1298821471184,95.2248
1298821531184,95.2223
1298821591184,95.2613
1298821651184,95.2909
1298821711184,95.1618
1298821771184,95.4498
1298821831184,95.1124
1298821891184,95.3097
1298821951184,95.5195
1298822011184,95.3454
1298822071184,95.3172
1298822131184,95.3853
1298822191184,95.4333
1298822251184,95.3011
1298822311184,95.3600
1298822371184,95.4831
1298822431195,95.2313
1298822491195,95.6211
1298822551195,95.4431
1298822611195,95.4127
1298822671195,95.4664
1298822731195,95.3313
1298822791195,95.5388
1298822851195,95.4307
1298822911195,95.2408
1298822971195,95.3657
1298823031195,95.5463
1298823091195,95.2853
1298823151195,95.0595
1298823211195,95.3748
1298823271195,95.4123
1298823331195,95.4660
1298823391195,95.4646
1298823451195,95.1943
1298823511195,95.4319
1298823571195,95.3883
1298823631195,95.6562
1298823691195,95.3274
1298823751195,95.4088
1298823811195,95.3617
1298823871195,95.1431
1298823931195,95.4756
1298823991195,95.1964
1298824051195,95.3866
1298824111195,95.2726
1298824171195,95.2436
1298824231195,95.2806
1298824291195,95.3022
1298824351195,95.1820
1298824411195,95.5859
1298824471195,95.3439
1298824531195,95.2893
1298824591195,95.3091
1298824651195,95.2075
1298824711195,95.4684
1298824771195,95.3563
1298824831195,95.3464
1298824891195,95.1715
1298824951195,95.3090
1298825011195,95.3118
1298825071195,95.2820
1298825131195,95.4117
1298825191195,95.1239
1298825251195,95.1607
1298825311195,95.4807
1298825371195,95.4287
1298825431195,95.1446
1298825491195,95.3136
1298825551195,95.1546
1298825611195,95.1759
1298825671195,95.4120
1298825731195,95.1352
1298825791195,95.3171
1298825851195,94.9036
1298825911195,95.2601
1298825971195,95.2083
1298826031206,95.2775
1298826091206,95.3334
1298826151206,95.0820
1298826211206,95.2781
1298826271206,95.2731
1298826331206,95.1405
1298826391206,95.1292
1298826451206,95.0784
1298826511206,95.3461
1298826571206,95.3563
1298826631206,95.4516
1298826691206,95.2852
1298826751206,95.3347
1298826811206,95.2763
1298826871206,95.3713
1298826931206,95.2696
1298826991206,95.4580
1298827051206,95.8293
1298827111206,95.0833
1298827171206,95.4609
1298827231206,95.2681
1298827291206,95.5141
1298827351206,95.2435
1298827411206,95.3467
1298827471206,95.1894
1298827531206,95.2344
1298827591206,95.2753
1298827651206,95.0349
1298827711206,95.3600
1298827771206,95.0732
1298827831206,95.2017
1298827891206,95.4087
1298827951206,94.9941
1298828011206,94.9918
1298828071206,95.1051
1298828131206,95.0233
1298828191206,95.2353
1298828251206,95.1638
1298828311206,95.0498
1298828371206,95.0528
1298828431206,94.9840
1298828491206,94.8944
1298828551206,95.1222
1298828611206,94.9417
1298828671206,95.0427
1298828731206,95.2591
1298828791206,95.0697
1298828851206,95.0798
1298828911206,95.1928
1298828971206,95.0648
1298829031206,95.1199
1298829091206,95.1517
1298829151206,95.0035
1298829211206,95.1628
1298829271206,95.1229
1298829331206,95.0588
1298829391206,94.9706
1298829451206,95.1495
1298829511206,94.9795
1298829571206,94.8822
1298829631217,95.1036
1298829691217,95.1974
1298829751217,95.2436
1298829811217,95.0818
1298829871217,94.7985
1298829931217,95.1929
1298829991217,95.1344
1298830051217,95.1978
1298830111217,95.1456
1298830171217,95.1759
1298830231217,95.0242
1298830291217,95.0717
1298830351217,94.9354
1298830411217,95.1405
1298830471217,95.2192
1298830531217,94.9843
1298830591217,95.1227
1298830651217,94.8825
1298830711217,95.1042
1298830771217,95.3075
1298830831217,95.2290
1298830891217,95.1277
1298830951217,95.2142
1298831011217,95.2526
1298831071217,95.2885
1298831131217,95.5252
1298831191217,95.3821
1298831251217,95.1860